Location: Chimay
(50.0486°N, 4.3171°E)
Time: 05:38:03
(UTC+00:00)

ATLAS 5 CENTAUR R/B - Pass Details

Date: 08 August 2020
Orbit: 533 x 1125 km, 63.4° (Epoch: 18 September)

Event Time Altitude Azimuth Distance (km) Brightness Sun altitude
Rises 20:43:40 0° 311° (NW) 3,309 7.4 -12.7°
Reaches altitude 10° 20:46:10 10° 301° (WNW) 2,469 6.0 -12.9°
Maximum altitude 20:51:14 32° 241° (WSW) 1,546 3.7 -13.5°
Drops below altitude 10° 20:56:56 10° 181° (S) 2,801 4.5 -14.1°
Enters shadow 20:57:16 - 180° (S) 2,910 4.6 -14.2°
